This is the latest recevied weather packets stored in our database for station/object K4PAD. If no packets are shown the sender has not sent any weather packets the latest 10 day(s).
| Time | Temp. | Humidity | Pressure | Rain* | Wind** | Luminosity | Snow |
|---|---|---|---|---|---|---|---|
| 1777895797 | 13.33° C | 98% | 1019.4 hPa | 0 mm | - | 69 W/m² | - |
| 1777895493 | 12.78° C | 98% | 1019.5 hPa | 0 mm | - | 39 W/m² | - |
| 1777895192 | 12.78° C | 98% | 1019.6 hPa | 0 mm | - | 37 W/m² | - |
| 1777894888 | 12.78° C | 98% | 1019.5 hPa | 0 mm | - | 40 W/m² | - |
| 1777894586 | 12.22° C | 98% | 1019.4 hPa | 0 mm | - | 39 W/m² | - |
| 1777894283 | 12.22° C | 98% | 1019.2 hPa | 0 mm | - | 36 W/m² | - |
| 1777893980 | 11.67° C | 98% | 1019.3 hPa | 0 mm | - | 35 W/m² | - |
| 1777893676 | 11.67° C | 98% | 1019.3 hPa | 0 mm | - | 28 W/m² | - |
| 1777893372 | 11.67° C | 98% | 1019.1 hPa | 0 mm | - | 24 W/m² | - |
| 1777893068 | 11.11° C | 98% | 1019.2 hPa | 0 mm | - | 21 W/m² | - |
| 1777892766 | 11.11° C | 98% | 1019 hPa | 0 mm | - | 18 W/m² | - |
| 1777892462 | 11.11° C | 98% | 1019.1 hPa | 0 mm | - | 14 W/m² | - |
| 1777892158 | 11.11° C | 98% | 1019.1 hPa | 0 mm | - | 10 W/m² | - |
| 1777891855 | 11.11° C | 98% | 1019.1 hPa | 0 mm | - | 7 W/m² | - |
| 1777891552 | 11.11° C | 98% | 1019 hPa | 0 mm | - | 4 W/m² | - |
| 1777891249 | 11.11° C | 98% | 1019.1 hPa | 0 mm | - | 3 W/m² | - |
| 1777890948 | 11.11° C | 98% | 1018.9 hPa | 0 mm | - | 1 W/m² | - |
| 1777890643 | 11.11° C | 98% | 1018.9 hPa | 0 mm | - | 0 W/m² | - |
| 1777890339 | 11.11° C | 98% | 1018.8 hPa | 0 mm | - | 0 W/m² | - |
| 1777890035 | 11.11° C | 98% | 1018.7 hPa | 0 mm | - | 0 W/m² | - |
| 1777889733 | 11.11° C | 98% | 1018.8 hPa | 0 mm | - | 0 W/m² | - |
| 1777889431 | 11.11° C | 97% | 1018.9 hPa | 0 mm | - | 0 W/m² | - |
| 1777889128 | 11.11° C | 98% | 1018.8 hPa | 0 mm | - | 0 W/m² | - |
| 1777888826 | 11.11° C | 97% | 1018.7 hPa | 0 mm | - | 0 W/m² | - |
| 1777888521 | 11.67° C | 97% | 1018.9 hPa | 0 mm | - | 0 W/m² | - |
* Rain latest hour (hover to see other rain measurements)
** Current wind speed in m/s (hover to see current wind gust speed)